Regional Weather Roundup
Issued by NWS

Home | Current Version | Previous Version | Graphics & Text | Print | Product List | Glossary On
Versions: 1 2 3 4 5 6 7 8 9 10 11 12 13 14 15 16 17 18 19 20 21 22 23 24 25 26 27 28 29 30 31 32 33 34 35 36 37 38 39 40 41 42 43 44 45 46 47 48 49 50
000
ASUS43 KLOT 231608
RWRIL

ILLINOIS REGIONAL WEATHER ROUNDUP
NATIONAL WEATHER SERVICE CHICAGO/ROMEOVILLE IL
1000 AM CST THU NOV 23 2017

NOTE: "FAIR" INDICATES FEW OR NO CLOUDS BELOW 12,000 FEET WITH NO
SIGNIFICANT WEATHER AND/OR OBSTRUCTIONS TO VISIBILITY.

* THESE STATIONS ARE NOT UNDER NWS QUALITY CONTROL. THEY ALSO MAY NOT
  REPORT WEATHER SUCH AS PRECIPITATION OR FOG.

ILZ001-002-007-009-015-016-024-231700-
NORTHWEST ILLINOIS

CITY           SKY/WX    TMP DP  RH WIND       PRES   REMARKS
MOLINE         SUNNY     40  22  48 W9        29.98F
STERLING*      SUNNY     38  23  55 SW9       29.99  WCI  31
SAVANNA*       SUNNY     37  23  55 SW6       29.98F WCI  33
$$

ILZ003-004-008-010-011-017-018-231700-
NORTH CENTRAL ILLINOIS

CITY           SKY/WX    TMP DP  RH WIND       PRES   REMARKS
ROCKFORD       MOSUNNY   38  22  52 SW12      30.00F WCI  30
FREEPORT*      SUNNY     35  22  57 SW12      29.99S WCI  27
ROCHELLE*      SUNNY     37  24  58 SW10      29.99F WCI  30
DE KALB*       SUNNY     37  24  57 SW13      29.99F WCI  29
PERU*          SUNNY     39  22  49 SW10G16   30.01F WCI  32
$$

ILZ005-006-012>014-019>023-231700-
NORTHEAST ILLINOIS

CITY           SKY/WX    TMP DP  RH WIND       PRES   REMARKS
CHICAGO-OHARE  MOSUNNY   40  21  46 SW12      29.99F
CHICAGO-MIDWAY MOSUNNY   40  23  50 SW13      30.01F
AURORA         SUNNY     39  23  52 SW14      30.01F WCI  31
LANSING*       SUNNY     38  26  63 SW10G16   30.04S WCI  31
JOLIET*        SUNNY     40  24  51 S10G16    30.02F
WAUKEGAN       SUNNY     39  22  50 SW8       29.98F WCI  33
DUPAGE AIRPORT SUNNY     38  23  55 SW14      29.99F WCI  30
KANKAKEE*      SUNNY     39  24  53 SW9       30.06S WCI  33
WHEELING       SUNNY     40  21  46 SW13G20   30.01F
MORRIS*        SUNNY     40  24  52 S14       30.00F
ROMEOVILLE*    SUNNY     40  23  51 SW13      30.01F
NORTHERLY ISL    N/A     38  20  48 S13         N/A  WCI  30
$$

LMZ740>746-231700-
SOUTHERN LAKE MICHIGAN

STATION/POSITION SKY/WX   TEMP    WIND        PRES    VSBY  WAVE
                          AIR SEA DIR/SP/G                  HT/PER
                          (F)     (DEG/KT/KT) (MB)    (MI)  (FT/S)
SOUTHERN BUOY              39 47  250/ 17/ 21 1016.9          4/ 5
HARRISON CRIB              38     210/ 17/ 18   N/A
BURNHAM HARBOR             39     170/  8/ 11   N/A
CALUMET HARBOR             38     190/ 12/ 15 1016.0F
BURNS HARBOR               36     190/ 13/ 15 1017.6F
MICHIGAN CITY              35     190/ 11/ 14   N/A
$$

ILZ025>027-034>036-040-047-049-050-058-095>099-231700-
WEST-CENTRAL ILLINOIS

CITY           SKY/WX    TMP DP  RH WIND       PRES   REMARKS
QUINCY         SUNNY     41  23  48 SW12      30.00F
GALESBURG*     SUNNY     40  26  57 SW10      30.01R
MACOMB*        SUNNY     40  24  51 W12       30.03S
JACKSONVILLE*  SUNNY     42  22  44 SW14      30.04R
PITTSFIELD*    SUNNY     43  22  43 SW13G18   30.04R
$$

ILZ028>032-037-038-041>044-048-051>054-059>061-231700-
CENTRAL ILLINOIS

CITY           SKY/WX    TMP DP  RH WIND       PRES   REMARKS
PONTIAC        MOSUNNY   40  24  52 SW15      30.03F
BLOOMINGTON    SUNNY     40  23  50 SW13      30.03F
DECATUR        SUNNY     39  24  55 S14       30.06F WCI  31
PEORIA         SUNNY     40  22  48 SW12      30.02F
LACON*         SUNNY     40  23  50 S8        30.01F
LINCOLN*       SUNNY     41  26  55 S9        30.04F
SPRINGFIELD    SUNNY     44  25  47 SW10      30.05F
TAYLORVILLE    SUNNY     39  26  58 S14       30.06F WCI  31
$$

ILZ033-039-045-046-055>057-062-063-231700-
EAST-CENTRAL ILLINOIS

CITY           SKY/WX    TMP DP  RH WIND       PRES   REMARKS
CHAMPAIGN      SUNNY     39  24  55 S15       30.07S WCI  31
DANVILLE*      PTSUNNY   36  24  62 S12       30.06F WCI  28
RANTOUL*       SUNNY     40  26  55 SW10      30.07S
MATTOON        MOSUNNY   38  25  59 S9        30.08F WCI  31
PARIS*         CLOUDY    36  26  65 S13       30.11S WCI  28
$$

ILZ079-100>102-231700-
SOUTHWEST ILLINOIS

CITY           SKY/WX    TMP DP  RH WIND       PRES   REMARKS
ALTON          SUNNY     41  27  56 S7        30.09S
BELLEVILLE     SUNNY     43  25  48 SW7       30.09F
CAHOKIA*       SUNNY     43  22  43 SW8       30.09F
SPARTA*        SUNNY     40  25  54 S8        30.12F
$$

ILZ064>066-069>071-074>076-080>082-084>086-088>090-092>094-231700-
SOUTH-CENTRAL ILLINOIS

CITY           SKY/WX    TMP DP  RH WIND       PRES   REMARKS
CARBONDALE     SUNNY     42  25  50 SW8       30.14F
CAIRO*         SUNNY     39  27  60 S5        30.17F
EFFINGHAM*     MOSUNNY   39  25  58 S8        30.12S WCI  33
MARION         MOSUNNY   43  25  49 S7        30.15F
MT. VERNON     SUNNY     41  27  57 S9        30.12F
CENTRALIA*     SUNNY     42  28  57 S9        30.11F
SALEM*         SUNNY     42  24  49 S9        30.11F
METROPOLIS*    SUNNY     40  26  56 CALM      30.17F
$$

ILZ067-068-072-073-078-083-087-091-231700-
SOUTHEAST ILLINOIS

CITY           SKY/WX    TMP DP  RH WIND       PRES   REMARKS
LAWRENCEVILLE  CLOUDY    37  26  64 S8        30.15S WCI  31
FLORA*         CLOUDY    40  26  57 S10       30.13S
FAIRFIELD*     SUNNY     39  27  60 S3        30.12F
HARRISBURG*    SUNNY     39  27  62 SW7       30.16F WCI  34
ROBINSON*      CLOUDY    36  24  61 SW7       30.14F WCI  30
CARMI*         SUNNY     39  26  60 S7        30.15S WCI  34
$$

ABBREVIATIONS USED IN REMARKS
   TC - TEMPERATURE IN CELSIUS
  WCI - WIND CHILL INDEX
   HX - HEAT INDEX
  VSB - VISIBILITY
$$





USA.gov is the U.S. government's official web portal to all federal, state and local government web resources and services.